{"data":{"norad_id":56392,"intl_designator":"2023-061U","name":"STARLINK-6301","alt_names":[],"object_type":"PAYLOAD","status":"ACTIVE","operator":null,"country":"US","launch_date":"2023-05-04","launch_site_code":"AFETR","launch_vehicle":null,"mission":null,"orbit_class":"UNKNOWN","rcs_meters":null,"size_class":null,"mass_kg":null,"dimensions":null,"purposes":["comms"],"wikipedia_slug":null,"has_3d_model":false,"image_url":null,"decayed_at":null,"tle_current":{"epoch":"2026-05-25T04:46:07.158144Z","epoch_age_seconds":51879,"freshness":"FRESH","line1":"1 56392U 23061U   26145.19869396  .00000239  00000+0  18221-4 0  9997","line2":"2 56392  43.0031 115.1320 0000971 246.8716 113.2034 15.27579537168574","mean_motion":15.27579537,"eccentricity":9.71e-5,"inclination_deg":43.0031,"raan_deg":115.132,"arg_perigee_deg":246.8716,"mean_anomaly_deg":113.2034,"bstar":1.8221e-5,"rev_number":16857,"period_min":94.266777285326,"perigee_km":482.38426112402,"apogee_km":483.71670373311,"semimajor_km":6861.1874824286,"source":"CELESTRAK","updated_at":"2026-05-25T13:38:18.013884Z"}}}